[[{"header":{"parameterUnit":"m.s-1","parameterCategory":1,"la1":30.2991,"la2":30.254,"lo1":-89.0895,"lo2":-89.0444,"dy":0.0017,"dx":0.0017,"nx":28,"ny":28,"refTime":"2025-04-15T03:00:00:Z","depth":0,"parameterNumber":2,"parameterNumberName":"U-component_of_WINDS"},"data":[0,0,0,0,0,0,0,0,0,0,0,0,0,0,0,0,0,0,0,0,0,0,0,0,0,0,0,0,0,0,0,0,0,0,0,0,0,0,0,0,0,0,0,0,0,0,0,0,0,0,0,0,0,0,0,0,0,0,-3.0328,-3.0328,0,-3.0398,-3.0399,-3.0399,-3.026,-3.0256,-3.0251,-3.0247,-3.0323,-3.0329,-3.0335,0,0,0,0,0,0,0,0,0,0,0,0,0,-3.0076,-3.0081,-3.0328,-3.0329,-3.0329,-3.0398,-3.0399,-3.04,-3.0261,-3.0255,-3.025,-3.0245,-3.0321,-3.0328,-3.0335,0,0,0,0,0,0,0,0,0,0,0,0,0,-3.017,-3.0083,-3.0328,-3.0268,-3.0264,-3.0397,-3.0399,-3.04,-3.0262,-3.0255,-3.0248,-3.0242,-3.0318,-3.0327,-3.0337,-3.0532,0,0,-3.0365,-3.0369,0,0,0,0,0,0,0,0,-3.0165,-3.0179,-3.0276,-3.0273,-3.0268,-3.0313,-3.0338,-3.0444,-3.0264,-3.0263,-3.0247,-3.0239,-3.0325,-3.0334,-3.0362,-3.0536,-3.0539,-3.0366,-3.0372,-3.0376,-3.0379,0,0,0,0,0,0,0,-3.0158,-3.0176,-3.0355,-3.0278,-3.0273,-3.0239,-3.0245,-3.0357,-3.0332,-3.0263,-3.0253,-3.0263,-3.0322,-3.0353,-3.0363,-3.054,-3.0366,-3.0374,-3.038,-3.0384,-3.0878,-3.0885,0,0,0,0,0,0,-3.0159,-3.0171,-3.0353,-3.0358,-3.0198,-3.0249,-3.0256,-3.0306,-3.033,-3.0327,-3.0268,-3.0256,-3.0341,-3.0352,-3.0365,-3.0597,-3.0376,-3.0385,-3.039,-3.0871,-3.088,-3.0888,0,0,0,0,0,0,-3.0154,-3.0177,-3.035,-3.0262,-3.0281,-3.0261,-3.0318,-3.0311,-3.0342,-3.0335,-3.033,-3.0305,-3.0336,-3.0352,-3.0491,-3.0598,-3.0389,-3.0398,-3.0862,-3.0873,-3.0884,-3.1062,0,0,0,0,0,0,-3.0147,-3.0176,-3.025,-3.0264,-3.0286,-3.0476,-3.0325,-3.0317,-3.0358,-3.0343,-3.0368,-3.0366,-3.0331,-3.0478,-3.0501,-3.0607,-3.0405,-3.0852,-3.0867,-3.088,-3.1047,-3.1078,-3.1105,0,0,0,0,0,-3.0139,-3.0298,-3.0254,-3.0277,-3.0378,-3.0482,-3.0495,-3.0451,-3.0367,-3.0442,-3.0437,-3.0365,-3.0581,-3.0494,-3.0518,-3.0628,-3.0845,-3.0863,-3.0879,-3.1034,-3.1072,-3.1104,0,0,0,0,0,0,-3.0298,-3.0299,-3.025,-3.0418,-3.0451,-3.0458,-3.0552,-3.0493,-3.0551,-3.0535,-3.0478,-3.0485,-3.0637,-3.0645,-3.0548,-3.0819,-3.0699,-3.0722,-3.0809,-3.0845,-3.0873,-3.087,-3.0413,0,0,0,0,0,-3.0352,-3.0436,-3.0432,-3.0581,-3.0599,-3.0573,-3.0616,-3.0579,-3.0612,-3.0626,-3.063,-3.0666,-3.0741,-3.0793,-3.0862,-3.1045,-3.105,-3.1133,-3.1162,-3.1186,-3.1208,-3.1306,-3.1344,-3.0943,-3.0943,-3.0942,0,0,-3.0466,-3.0477,-3.0533,-3.0613,-3.0634,-3.0723,-3.0586,-3.0685,-3.0751,-3.0641,-3.0774,-3.0778,-3.0813,-3.0977,-3.1048,-3.0989,-3.1318,-3.1207,-3.1227,-3.1235,-3.1328,-3.1366,-3.1399,-3.0954,-3.0952,-3.095,0,0,-3.072,-3.0735,-3.0861,-3.0885,-3.0917,-3.0898,-3.0928,-3.0944,-3.0943,-3.1074,-3.0994,-3.1071,-3.1202,-3.1231,-3.1263,-3.1524,-3.1461,-3.1548,-3.1702,-3.1798,-3.183,-3.1858,-3.1954,-3.1988,-3.1568,-3.1569,-3.1569,0,-3.0858,-3.0988,-3.0934,-3.1039,-3.1077,-3.0979,-3.1107,-3.1132,-3.1187,-3.1216,-3.1146,-3.1309,-3.1326,-3.1494,-3.1558,-3.1586,-3.162,-3.1547,-3.1829,-3.1857,-3.1882,-3.1973,-3.2009,-3.158,-3.1578,-3.1577,-3.1576,0,-3.1157,-3.1248,-3.1346,-3.14,-3.1448,-3.1564,-3.1529,-3.1584,-3.1542,-3.153,-3.1666,-3.1681,-3.1752,-3.1788,-3.1749,-3.1952,-3.1914,-3.1838,-3.1718,-3.1932,-3.2016,-3.205,-3.1595,-3.1591,-3.1588,-3.1585,0,0,-3.1517,-3.1537,-3.1575,-3.1598,-3.1625,-3.1695,-3.1806,-3.1874,-3.1924,-3.1963,-3.2057,-3.2169,-3.2098,-3.2135,-3.2097,-3.2181,-3.239,-3.2095,-3.2095,-3.2152,-3.2617,-3.2676,-3.2717,-3.2346,-3.2352,-3.2357,-3.2615,0,-3.1771,-3.1962,-3.1916,-3.2106,-3.219,-3.2096,-3.2192,-3.2221,-3.2212,-3.2282,-3.2272,-3.2354,-3.2253,-3.2275,-3.2354,-3.2348,-3.2483,-3.2328,-3.2435,-3.2439,-3.2433,-3.2761,-3.2825,-3.3067,-3.2647,-3.2652,-3.2656,0,-3.2093,-3.2144,-3.2343,-3.2356,-3.2389,-3.2477,-3.2535,-3.2603,-3.2633,-3.262,-3.266,-3.2604,-3.2715,-3.259,-3.2743,-3.2639,-3.2678,-3.2682,-3.269,-3.2702,-3.2564,-3.2785,-3.3143,-3.3181,-3.2707,-3.2703,-3.27,0,-3.234,-3.2457,-3.2591,-3.2613,-3.2632,-3.2696,-3.2707,-3.2729,-3.2772,-3.2823,-3.2851,-3.2914,-3.295,-3.3,-3.2964,-3.2875,-3.3123,-3.2995,-3.3118,-3.3119,-3.3178,-3.3176,-3.3551,-3.3198,-3.3197,-3.3197,-3.3196,0,-3.263,-3.2756,-3.2702,-3.2786,-3.2923,-3.2868,-3.3006,-3.3006,-3.3026,-3.3108,-3.3029,-3.3108,-3.3053,-3.3127,-3.3099,-3.3231,-3.3247,-3.3241,-3.3233,-3.325,-3.3252,-3.3279,-3.3263,-3.3206,-3.3204,-3.3202,-3.3201,0,-3.2931,-3.29,-3.304,-3.3044,-3.3048,-3.315,-3.3154,-3.3232,-3.3215,-3.332,-3.3341,-3.3316,-3.3399,-3.3366,-3.3455,-3.3436,-3.3605,-3.3573,-3.3596,-3.3589,-3.3715,-3.3705,-3.4125,-3.4178,-3.3787,-3.3791,-3.3794,0,-3.3121,-3.3215,-3.3229,-3.3277,-3.3293,-3.3372,-3.3415,-3.3363,-3.3412,-3.3451,-3.3525,-3.36,-3.3658,-3.3795,-3.3786,-3.3853,-3.3824,-3.3966,-3.3834,-3.3848,-3.383,-3.3826,-3.3836,-3.3994,-3.3999,-3.4002,-3.4005,0,-3.3461,-3.344,-3.3505,-3.3565,-3.3619,-3.3664,-3.3702,-3.3746,-3.3695,-3.3754,-3.3837,-3.3882,-3.3971,-3.4048,-3.4107,-3.4118,-3.4056,-3.4046,-3.4079,-3.41,-3.411,-3.4109,-3.3672,-3.4038,-3.4035,-3.4032,-3.4031,-3.4029,-3.3714,-3.3794,-3.3816,-3.3891,-3.3913,-3.395,-3.4023,-3.4014,-3.4082,-3.4151,-3.4115,-3.4212,-3.4238,-3.431,-3.433,-3.4406,-3.4351,-3.4397,-3.441,-3.4423,-3.4441,-3.4095,-3.4416,-3.4415,-3.4414,-3.4413,-3.4412,0,-3.4053,-3.4062,-3.4131,-3.4186,-3.4245,-3.4176,-3.4214,-3.4269,-3.4355,-3.4383,-3.4441,-3.4537,-3.461,-3.4605,-3.4673,-3.4734,-3.4707,-3.4754,-3.4751,-3.4755,-3.4485,-3.4452,-3.4775,-3.4775,-3.4775,-3.4775,-3.4775,-3.4775,-3.4237,-3.4368,-3.435,-3.4491,-3.4499,-3.4593,-3.462,-3.4654,-3.4676,-3.4786,-3.4846,-3.4842,-3.4857,-3.4925,-3.4989,-3.4986,-3.5016,-3.5075,-3.5062,-3.481,-3.4774,-3.474,-3.4708,-3.5081,-3.5082,-3.5326,-3.5328,-3.533]},{"header":{"parameterUnit":"m.s-1","parameterCategory":1,"la1":30.2991,"la2":30.254,"lo1":-89.0895,"lo2":-89.0444,"dy":0.0017,"dx":0.0017,"nx":28,"ny":28,"refTime":"2025-04-15T03:00:00:Z","depth":0,"parameterNumber":3,"parameterNumberName":"V-component_of_WINDS"},"data":[0,0,0,0,0,0,0,0,0,0,0,0,0,0,0,0,0,0,0,0,0,0,0,0,0,0,0,0,0,0,0,0,0,0,0,0,0,0,0,0,0,0,0,0,0,0,0,0,0,0,0,0,0,0,0,0,0,0,-4.5735,-4.5736,0,-4.5807,-4.5808,-4.5808,-4.5726,-4.5722,-4.5719,-4.5716,-4.5785,-4.579,-4.5795,0,0,0,0,0,0,0,0,0,0,0,0,0,-4.5521,-4.5525,-4.5735,-4.5736,-4.5737,-4.5807,-4.5808,-4.5809,-4.5726,-4.5722,-4.5719,-4.5715,-4.5784,-4.5789,-4.5795,0,0,0,0,0,0,0,0,0,0,0,0,0,-4.5605,-4.5527,-4.5735,-4.5704,-4.5702,-4.5806,-4.5808,-4.5809,-4.5727,-4.5722,-4.5718,-4.5713,-4.5782,-4.5789,-4.5796,-4.5932,0,0,-4.5817,-4.5821,0,0,0,0,0,0,0,0,-4.5601,-4.5613,-4.5708,-4.5706,-4.5704,-4.5753,-4.5757,-4.585,-4.5728,-4.5717,-4.5716,-4.5711,-4.5778,-4.5785,-4.5809,-4.5936,-4.5939,-4.5818,-4.5822,-4.5825,-4.5827,0,0,0,0,0,0,0,-4.5595,-4.561,-4.5763,-4.5709,-4.5707,-4.5685,-4.5692,-4.5774,-4.5773,-4.5718,-4.5712,-4.5722,-4.5776,-4.5802,-4.581,-4.594,-4.5818,-4.5824,-4.5829,-4.5831,-4.6181,-4.6185,0,0,0,0,0,0,-4.5593,-4.5605,-4.5761,-4.5765,-4.564,-4.5693,-4.57,-4.5742,-4.5772,-4.5772,-4.5726,-4.5718,-4.5792,-4.5801,-4.5812,-4.5973,-4.5825,-4.5832,-4.5836,-4.6176,-4.6182,-4.6187,0,0,0,0,0,0,-4.5589,-4.5608,-4.5758,-4.5684,-4.5701,-4.5701,-4.5748,-4.5746,-4.5771,-4.5778,-4.5776,-4.5753,-4.5789,-4.5802,-4.5903,-4.5974,-4.5835,-4.5842,-4.617,-4.6177,-4.6184,-4.6297,0,0,0,0,0,0,-4.5583,-4.5607,-4.566,-4.5686,-4.5706,-4.585,-4.5753,-4.575,-4.5784,-4.5775,-4.5803,-4.5803,-4.5786,-4.5893,-4.591,-4.5981,-4.5847,-4.6163,-4.6173,-4.6182,-4.6287,-4.6307,-4.6325,0,0,0,0,0,-4.5576,-4.5688,-4.5663,-4.5683,-4.5773,-4.5855,-4.5866,-4.5845,-4.5791,-4.5843,-4.5847,-4.5802,-4.5964,-4.5904,-4.5923,-4.5997,-4.6159,-4.617,-4.6181,-4.6278,-4.6303,-4.6324,0,0,0,0,0,0,-4.567,-4.5691,-4.5664,-4.5788,-4.582,-4.584,-4.5906,-4.5873,-4.592,-4.5909,-4.588,-4.5887,-4.5995,-4.6006,-4.5939,-4.613,-4.6052,-4.6067,-4.6119,-4.6143,-4.6162,-4.6157,-4.5853,0,0,0,0,0,-4.5705,-4.5772,-4.5786,-4.5894,-4.5912,-4.5907,-4.5942,-4.5923,-4.5955,-4.5967,-4.5979,-4.601,-4.6067,-4.6105,-4.6159,-4.6288,-4.6292,-4.6348,-4.6367,-4.6382,-4.6396,-4.6464,-4.6489,-4.6224,-4.6224,-4.6224,0,0,-4.5779,-4.5798,-4.5842,-4.5914,-4.5936,-4.6004,-4.5919,-4.5994,-4.6044,-4.5978,-4.6075,-4.6084,-4.6116,-4.6232,-4.6284,-4.6245,-4.647,-4.6397,-4.6409,-4.6415,-4.6478,-4.6503,-4.6525,-4.6232,-4.6231,-4.6229,0,0,-4.5947,-4.597,-4.6062,-4.6087,-4.6123,-4.6118,-4.614,-4.6166,-4.617,-4.6266,-4.6219,-4.6276,-4.6376,-4.6401,-4.6426,-4.6603,-4.6563,-4.6621,-4.6721,-4.6787,-4.6808,-4.6826,-4.6889,-4.6911,-4.6635,-4.6635,-4.6635,0,-4.6033,-4.6136,-4.6113,-4.6192,-4.6224,-4.617,-4.6262,-4.6286,-4.6337,-4.636,-4.6316,-4.644,-4.6458,-4.6578,-4.6621,-4.6644,-4.6667,-4.6618,-4.6807,-4.6825,-4.6842,-4.6901,-4.6925,-4.6642,-4.6641,-4.664,-4.664,0,-4.6239,-4.6311,-4.6381,-4.6433,-4.6473,-4.6558,-4.6547,-4.6589,-4.6567,-4.6567,-4.6665,-4.6685,-4.6741,-4.6768,-4.6746,-4.6885,-4.6859,-4.6812,-4.6733,-4.6874,-4.6929,-4.6952,-4.6652,-4.6649,-4.6647,-4.6646,0,0,-4.647,-4.6508,-4.6534,-4.6557,-4.6592,-4.6646,-4.6728,-4.6784,-4.682,-4.6857,-4.6924,-4.7009,-4.6965,-4.6995,-4.6975,-4.7034,-4.7172,-4.6979,-4.6979,-4.7013,-4.7324,-4.7359,-4.7386,-4.7145,-4.7149,-4.7153,-4.7321,0,-4.6638,-4.6783,-4.6764,-4.6901,-4.6966,-4.6914,-4.6985,-4.7013,-4.7015,-4.7068,-4.7069,-4.713,-4.7068,-4.7085,-4.7141,-4.7143,-4.7233,-4.7131,-4.7206,-4.7209,-4.7199,-4.7415,-4.7453,-4.7611,-4.7342,-4.7346,-4.7349,0,-4.6855,-4.6901,-4.7045,-4.7069,-4.7096,-4.716,-4.721,-4.7262,-4.7292,-4.7289,-4.7322,-4.7291,-4.7371,-4.7291,-4.74,-4.733,-4.7359,-4.7365,-4.7371,-4.7377,-4.7287,-4.7426,-4.7661,-4.7684,-4.7382,-4.738,-4.7377,0,-4.7008,-4.7105,-4.7204,-4.7225,-4.7256,-4.7302,-4.7317,-4.7343,-4.7377,-4.742,-4.7441,-4.7492,-4.752,-4.7559,-4.7542,-4.7486,-4.7654,-4.7572,-4.7652,-4.7653,-4.769,-4.7688,-4.7932,-4.771,-4.7709,-4.7709,-4.7708,0,-4.7198,-4.7288,-4.7273,-4.7334,-4.7433,-4.7409,-4.7507,-4.7515,-4.7538,-4.7598,-4.7556,-4.7612,-4.7587,-4.7642,-4.7629,-4.7721,-4.7733,-4.7732,-4.7727,-4.7736,-4.7736,-4.7754,-4.7743,-4.7715,-4.7714,-4.7713,-4.7711,0,-4.7386,-4.738,-4.7484,-4.7505,-4.7512,-4.7584,-4.7601,-4.7657,-4.7655,-4.7731,-4.7747,-4.7744,-4.7805,-4.7793,-4.7861,-4.7852,-4.7966,-4.7948,-4.7957,-4.7953,-4.8033,-4.8026,-4.8298,-4.8332,-4.8088,-4.809,-4.8092,0,-4.7508,-4.7576,-4.7605,-4.7643,-4.7661,-4.7723,-4.7758,-4.7737,-4.7775,-4.7814,-4.7865,-4.7923,-4.7969,-4.807,-4.8072,-4.8123,-4.8105,-4.8197,-4.8113,-4.8119,-4.8106,-4.8102,-4.8109,-4.8214,-4.8217,-4.8219,-4.8221,0,-4.7725,-4.7718,-4.7772,-4.7824,-4.7868,-4.7908,-4.7943,-4.7976,-4.7957,-4.8002,-4.8066,-4.8101,-4.817,-4.8228,-4.8276,-4.8288,-4.8252,-4.8247,-4.8268,-4.8278,-4.828,-4.8279,-4.8002,-4.8241,-4.8239,-4.8238,-4.8237,-4.8236,-4.7883,-4.7941,-4.797,-4.8031,-4.8055,-4.8089,-4.8143,-4.8148,-4.8201,-4.8257,-4.824,-4.8312,-4.8339,-4.8399,-4.8417,-4.8472,-4.8437,-4.8468,-4.8476,-4.8484,-4.8493,-4.8271,-4.848,-4.848,-4.8479,-4.8479,-4.8478,0,-4.8097,-4.8113,-4.8169,-4.8221,-4.8268,-4.8231,-4.8267,-4.8309,-4.8373,-4.8402,-4.8448,-4.852,-4.8576,-4.8583,-4.8635,-4.8677,-4.8661,-4.8691,-4.8688,-4.8691,-4.8521,-4.8498,-4.8703,-4.8703,-4.8703,-4.8703,-4.8703,-4.8703,-4.8214,-4.831,-4.8307,-4.8414,-4.8428,-4.85,-4.8524,-4.8554,-4.8577,-4.866,-4.8707,-4.8711,-4.8731,-4.8784,-4.8832,-4.8833,-4.8854,-4.889,-4.8884,-4.8725,-4.8703,-4.8682,-4.8659,-4.8895,-4.8895,-4.9049,-4.905,-4.9051]}]]